tititudorancea.com
Station Historical Data
Daily Summary for April 19, 2018 Units:  Metric    English   Both
« Previous Day
Next Day »
Daily Weekly Monthly Yearly Custom
  High: Low: Average:
Temperature: -17.8 °C 5.9 °C 14.4 °C
Dew Point: -17.8 °C 3.8 °C 6.8 °C
Humidity: Humidity % 36 % 64 %
Wind Speed: 0 km/h 0 km/h 1.3 km/h
Wind Gust: 0 km/h - -
Wind:- - SSE
Pressure: 0 hPa 1016.5 hPa -
Precipitation: 0 mm    
Historical Graphs
 
 
Ararat weather Find more about Weather in Ararat, AU


 



 


Tabular Data for April 19, 2018
Time Temperature Dew Point Pressure Wind Wind Speed Wind Gust Humidity Rainfall Rate (Hourly)
-17.8 °C -17.8 °C 0 hPa Calm     Humidity % 0 mm
00:04 9.1 °C 6.2 °C 1017.8 hPa Calm     82 % 0 mm
00:09 9.1 °C 6.3 °C 1017.8 hPa Calm     83 % 0 mm
00:14 8.9 °C 6.2 °C 1017.8 hPa Calm     83 % 0 mm
00:19 8.9 °C 6.2 °C 1017.5 hPa Calm     83 % 0 mm
00:24 8.9 °C 6.3 °C 1017.5 hPa Calm     84 % 0 mm
00:29 8.9 °C 6.3 °C 1017.5 hPa Calm     84 % 0 mm
00:34 8.9 °C 6.3 °C 1017.5 hPa Calm     84 % 0 mm
00:39 8.9 °C 6.3 °C 1017.5 hPa Calm     84 % 0 mm
00:44 8.8 °C 6.3 °C 1017.5 hPa Calm     84 % 0 mm
00:49 8.7 °C 6.2 °C 1017.5 hPa Calm     84 % 0 mm
00:54 8.7 °C 6.1 °C 1017.5 hPa Calm     84 % 0 mm
00:59 8.7 °C 6.1 °C 1017.5 hPa Calm     84 % 0 mm
01:04 8.7 °C 6 °C 1017.5 hPa Calm     83 % 0 mm
01:09 8.7 °C 5.9 °C 1017.5 hPa Calm     83 % 0 mm
01:14 8.7 °C 5.9 °C 1017.5 hPa Calm     83 % 0 mm
01:19 8.6 °C 5.9 °C 1017.5 hPa Calm     83 % 0 mm
01:24 8.7 °C 5.9 °C 1017.5 hPa Calm     83 % 0 mm
01:29 8.7 °C 5.8 °C 1017.5 hPa Calm     82 % 0 mm
01:34 8.6 °C 5.7 °C 1017.5 hPa Calm     82 % 0 mm
01:39 8.6 °C 5.7 °C 1017.5 hPa Calm     82 % 0 mm
01:44 8.6 °C 5.7 °C 1017.5 hPa Calm     82 % 0 mm
01:49 8.6 °C 5.5 °C 1017.5 hPa Calm     81 % 0 mm
01:54 8.5 °C 5.4 °C 1017.5 hPa Calm     81 % 0 mm
01:59 8.5 °C 5.4 °C 1017.5 hPa Calm     81 % 0 mm
02:04 8.4 °C 5.3 °C 1017.5 hPa Calm     81 % 0 mm
02:09 8.4 °C 5.3 °C 1017.5 hPa Calm     81 % 0 mm
02:14 8.4 °C 5.3 °C 1017.5 hPa Calm     81 % 0 mm
02:19 8.4 °C 5.1 °C 1017.5 hPa Calm     80 % 0 mm
02:24 8.3 °C 5.1 °C 1017.5 hPa Calm     80 % 0 mm
02:29 8.3 °C 5.1 °C 1017.5 hPa Calm     80 % 0 mm
02:34 8.3 °C 5.1 °C 1017.2 hPa Calm     80 % 0 mm
02:39 8.2 °C 4.9 °C 1017.2 hPa Calm     80 % 0 mm
02:44 8 °C 4.9 °C 1017.2 hPa Calm     81 % 0 mm
02:49 7.9 °C 4.7 °C 1017.2 hPa Calm     80 % 0 mm
02:54 7.8 °C 4.9 °C 1017.2 hPa Calm     82 % 0 mm
02:59 7.8 °C 4.9 °C 1017.2 hPa Calm     82 % 0 mm
03:04 7.7 °C 4.8 °C 1016.8 hPa Calm     82 % 0 mm
03:09 7.6 °C 4.7 °C 1016.8 hPa Calm     82 % 0 mm
03:14 7.4 °C 4.6 °C 1016.8 hPa Calm     82 % 0 mm
03:19 7.3 °C 4.6 °C 1016.8 hPa Calm     83 % 0 mm
03:24 7.2 °C 4.7 °C 1016.8 hPa Calm     84 % 0 mm
03:29 7.1 °C 4.6 °C 1016.8 hPa Calm     84 % 0 mm
03:34 6.9 °C 4.6 °C 1016.8 hPa Calm     85 % 0 mm
03:39 6.8 °C 4.4 °C 1016.8 hPa Calm     85 % 0 mm
03:44 6.7 °C 4.4 °C 1016.8 hPa Calm     85 % 0 mm
03:49 6.7 °C 4.5 °C 1016.8 hPa Calm     86 % 0 mm
03:54 6.7 °C 4.5 °C 1016.8 hPa Calm     86 % 0 mm
03:59 6.6 °C 4.4 °C 1016.8 hPa Calm     86 % 0 mm
04:04 6.5 °C 4.3 °C 1016.8 hPa Calm     86 % 0 mm
04:09 6.5 °C 4.5 °C 1016.8 hPa Calm     87 % 0 mm
04:14 6.5 °C 4.5 °C 1016.8 hPa Calm     87 % 0 mm
04:19 6.6 °C 4.6 °C 1016.8 hPa Calm     87 % 0 mm
04:24 6.6 °C 4.6 °C 1016.8 hPa Calm     87 % 0 mm
04:29 6.6 °C 4.6 °C 1016.5 hPa Calm     87 % 0 mm
04:34 6.7 °C 4.5 °C 1016.8 hPa Calm     86 % 0 mm
04:39 6.5 °C 4.3 °C 1016.8 hPa Calm     86 % 0 mm
04:44 6.5 °C 4.3 °C 1016.8 hPa Calm     86 % 0 mm
04:49 6.7 °C 4.5 °C 1016.8 hPa Calm     86 % 0 mm
04:54 6.8 °C 4.6 °C 1016.8 hPa Calm     86 % 0 mm
04:59 6.9 °C 4.6 °C 1016.8 hPa Calm     85 % 0 mm
05:04 6.9 °C 4.6 °C 1016.8 hPa Calm     85 % 0 mm
05:09 6.8 °C 4.3 °C 1016.8 hPa Calm     84 % 0 mm
05:14 6.7 °C 4.2 °C 1016.8 hPa Calm     84 % 0 mm
05:19 6.6 °C 4.1 °C 1016.8 hPa Calm     84 % 0 mm
05:24 6.5 °C 4 °C 1016.8 hPa Calm     84 % 0 mm
05:29 6.4 °C 4.1 °C 1016.8 hPa Calm     85 % 0 mm
05:34 6.3 °C 4 °C 1016.8 hPa Calm     85 % 0 mm
05:39 6.3 °C 3.9 °C 1016.8 hPa Calm     85 % 0 mm
05:44 6.3 °C 4.1 °C 1016.8 hPa Calm     86 % 0 mm
05:49 6.2 °C 4 °C 1016.8 hPa Calm     86 % 0 mm
05:54 6.1 °C 3.9 °C 1017.2 hPa Calm     86 % 0 mm
05:59 6 °C 3.8 °C 1017.2 hPa Calm     86 % 0 mm
06:04 5.9 °C 3.8 °C 1017.2 hPa Calm     86 % 0 mm
06:09 5.9 °C 3.9 °C 1017.2 hPa Calm     87 % 0 mm
06:14 5.9 °C 3.9 °C 1017.2 hPa Calm     87 % 0 mm
06:19 5.9 °C 3.9 °C 1017.5 hPa Calm     87 % 0 mm
06:24 5.9 °C 4.1 °C 1017.5 hPa Calm     88 % 0 mm
06:29 6.1 °C 4.3 °C 1017.5 hPa Calm     88 % 0 mm
06:34 6.2 °C 4.4 °C 1017.5 hPa Calm     88 % 0 mm
06:39 6.3 °C 4.3 °C 1017.5 hPa Calm     87 % 0 mm
06:44 6.4 °C 4.4 °C 1017.5 hPa Calm     87 % 0 mm
06:49 6.4 °C 4.4 °C 1017.5 hPa Calm     87 % 0 mm
06:54 6.4 °C 4.2 °C 1017.5 hPa Calm     86 % 0 mm
06:59 6.4 °C 4.4 °C 1017.5 hPa Calm     87 % 0 mm
07:04 6.7 °C 4.5 °C 1017.8 hPa Calm     86 % 0 mm
07:09 6.7 °C 4.5 °C 1017.8 hPa Calm     86 % 0 mm
07:14 6.7 °C 4.6 °C 1017.8 hPa Calm     86 % 0 mm
07:19 6.7 °C 4.5 °C 1017.8 hPa Calm     86 % 0 mm
07:24 6.7 °C 4.5 °C 1017.8 hPa Calm     86 % 0 mm
07:29 6.7 °C 4.7 °C 1017.8 hPa Calm     87 % 0 mm
07:34 6.7 °C 4.7 °C 1018.2 hPa Calm     87 % 0 mm
07:39 6.7 °C 4.7 °C 1018.2 hPa Calm     87 % 0 mm
07:45 6.8 °C 4.8 °C 1018.2 hPa Calm     87 % 0 mm
07:50 6.8 °C 4.8 °C 1018.2 hPa Calm     87 % 0 mm
07:55 6.8 °C 4.8 °C 1018.2 hPa Calm     87 % 0 mm
08:00 6.8 °C 4.8 °C 1018.2 hPa Calm     87 % 0 mm
08:05 7 °C 5 °C 1018.2 hPa Calm     87 % 0 mm
08:10 7.1 °C 5.1 °C 1018.2 hPa Calm     87 % 0 mm
08:15 7.2 °C 5.2 °C 1018.2 hPa Calm     87 % 0 mm
08:20 7.3 °C 5.3 °C 1018.5 hPa Calm     87 % 0 mm
08:25 7.5 °C 5.7 °C 1018.5 hPa Calm     88 % 0 mm
08:30 8.1 °C 6.2 °C 1018.5 hPa Calm     88 % 0 mm
08:35 8.8 °C 7.1 °C 1018.5 hPa Calm     89 % 0 mm
08:40 10.2 °C 8.6 °C 1018.5 hPa Calm     90 % 0 mm
08:45 11.6 °C 9.3 °C 1018.5 hPa Calm     86 % 0 mm
08:50 12.2 °C 8.7 °C 1018.5 hPa Calm     79 % 0 mm
08:55 12.5 °C 8.2 °C 1018.5 hPa Calm     75 % 0 mm
09:00 12.8 °C 8.1 °C 1018.5 hPa Calm     73 % 0 mm
09:05 13.2 °C 7.6 °C 1018.5 hPa Calm     69 % 0 mm
09:10 13.4 °C 7 °C 1018.5 hPa Calm     65 % 0 mm
09:15 13.7 °C 7.4 °C 1018.5 hPa Calm     66 % 0 mm
09:20 14.1 °C 7.8 °C 1018.5 hPa Calm     66 % 0 mm
09:25 14.6 °C 7.9 °C 1018.5 hPa Calm     64 % 0 mm
09:30 15 °C 7.6 °C 1018.5 hPa Calm     61 % 0 mm
09:35 15.5 °C 7.8 °C 1018.5 hPa North 0.3 km/h 1.9 km/h 60 % 0 mm
09:40 16 °C 6.7 °C 1018.5 hPa North 3.1 km/h 5.6 km/h 54 % 0 mm
09:45 16.6 °C 6.7 °C 1018.5 hPa North 1.4 km/h 5.6 km/h 52 % 0 mm
09:50 17.2 °C 6.7 °C 1018.5 hPa North 0.5 km/h 1.9 km/h 50 % 0 mm
09:55 17.6 °C 6.7 °C 1018.5 hPa North 4 km/h 6.4 km/h 49 % 0 mm
10:05 17.8 °C 7.5 °C 1018.5 hPa North 0.2 km/h 1.9 km/h 51 % 0 mm
10:10 18.2 °C 7 °C 1018.5 hPa North 2.9 km/h 5.6 km/h 48 % 0 mm
10:15 18.6 °C 7.7 °C 1018.5 hPa North 1.8 km/h 3.7 km/h 49 % 0 mm
10:20 19.2 °C 7.6 °C 1018.5 hPa North 0.5 km/h 1.9 km/h 47 % 0 mm
10:25 19.9 °C 7.6 °C 1018.5 hPa North 1.4 km/h 5.6 km/h 45 % 0 mm
10:30 20.4 °C 7.4 °C 1018.5 hPa Calm   1.9 km/h 43 % 0 mm
10:35 20.8 °C 7.4 °C 1018.5 hPa North 1.4 km/h 3.7 km/h 42 % 0 mm
10:40 21.2 °C 6.3 °C 1018.2 hPa North 0.8 km/h 5.6 km/h 38 % 0 mm
10:45 21.3 °C 6.8 °C 1018.2 hPa North 2.7 km/h 4.8 km/h 39 % 0 mm
10:50 21.4 °C 7.3 °C 1018.2 hPa North 1.4 km/h 6.4 km/h 40 % 0 mm
10:55 21.5 °C 7.3 °C 1018.5 hPa North 0.5 km/h 1.9 km/h 40 % 0 mm
11:00 21.9 °C 7.7 °C 1018.5 hPa North 4 km/h 6.4 km/h 40 % 0 mm
11:05 21.9 °C 7.3 °C 1018.5 hPa East 8 km/h 9.3 km/h 39 % 0 mm
11:10 21.4 °C 8 °C 1018.2 hPa East 6.1 km/h 9.3 km/h 42 % 0 mm
11:15 21.4 °C 8.3 °C 1018.2 hPa East 3.2 km/h 9.3 km/h 43 % 0 mm
11:20 21.9 °C 7.7 °C 1018.2 hPa SE 13 km/h 18.5 km/h 40 % 0 mm
11:25 21.5 °C 6.9 °C 1018.2 hPa South 11.9 km/h 14.8 km/h 39 % 0 mm
11:30 21 °C 7.6 °C 1018.2 hPa South 8.4 km/h 11.1 km/h 42 % 0 mm
11:35 20.9 °C 7.2 °C 1018.2 hPa South 11.6 km/h 14.8 km/h 41 % 0 mm
11:40 20.9 °C 6.8 °C 1018.2 hPa South 9 km/h 11.1 km/h 40 % 0 mm
11:45 21 °C 6.9 °C 1017.8 hPa South 6.4 km/h 7.4 km/h 40 % 0 mm
11:50 21.3 °C 7.1 °C 1018.2 hPa South 9 km/h 13 km/h 40 % 0 mm
11:55 21.4 °C 7.2 °C 1017.8 hPa South 1.9 km/h 7.4 km/h 40 % 0 mm
12:00 21.8 °C 7.6 °C 1017.8 hPa South 1.3 km/h 8 km/h 40 % 0 mm
12:05 22.1 °C 6.7 °C 1017.8 hPa South 4.3 km/h 7.4 km/h 37 % 0 mm
12:10 22.4 °C 7 °C 1017.8 hPa South 8.9 km/h 11.3 km/h 37 % 0 mm
12:15 22.6 °C 6.7 °C 1017.5 hPa SSE 7.2 km/h 9.3 km/h 36 % 0 mm
12:20 22.8 °C 6.9 °C 1017.5 hPa SSE 6.9 km/h 9.3 km/h 36 % 0 mm
12:25 22.8 °C 6.9 °C 1017.5 hPa SSE 0.8 km/h 3.2 km/h 36 % 0 mm
12:30 22.7 °C 7.3 °C 1017.5 hPa South 11.3 km/h 14.8 km/h 37 % 0 mm
12:35 22.4 °C 7 °C 1017.5 hPa SSE 11.9 km/h 18.5 km/h 37 % 0 mm
12:40 22.4 °C 7.4 °C 1017.5 hPa SSE 2.7 km/h 5.6 km/h 38 % 0 mm
12:45 22.6 °C 7.6 °C 1017.2 hPa Calm   1.9 km/h 38 % 0 mm
12:50 22.9 °C 7.8 °C 1017.2 hPa SSE 5.5 km/h 7.4 km/h 38 % 0 mm
12:55 23.2 °C 7.3 °C 1017.2 hPa SSE 4.2 km/h 7.4 km/h 36 % 0 mm
13:00 23.1 °C 7.2 °C 1016.8 hPa SSE 2.4 km/h 8 km/h 36 % 0 mm
13:05 23 °C 7.5 °C 1016.8 hPa SSE 4.7 km/h 8 km/h 37 % 0 mm
13:10 22.9 °C 7.4 °C 1016.8 hPa SSE 3.4 km/h 7.4 km/h 37 % 0 mm
13:15 23.3 °C 8.2 °C 1016.8 hPa SSE 0.8 km/h 1.9 km/h 38 % 0 mm
13:20 23.9 °C 8.3 °C 1016.8 hPa SSE 4.8 km/h 11.1 km/h 37 % 0 mm
13:25 23.6 °C 7.7 °C 1016.8 hPa SSE 10.3 km/h 13 km/h 36 % 0 mm
13:30 23.1 °C 8 °C 1016.8 hPa SSE 3.2 km/h 5.6 km/h 38 % 0 mm
13:35 23.2 °C 8.1 °C 1016.5 hPa SSE 4.5 km/h 5.6 km/h 38 % 0 mm
13:40 23.6 °C 8 °C 1016.5 hPa SSE 2.3 km/h 3.7 km/h 37 % 0 mm
13:45 23.8 °C 9.1 °C 1016.5 hPa SSE 1.9 km/h 6.4 km/h 39 % 0 mm
13:50 23.8 °C 9 °C 1016.5 hPa SW 12.2 km/h 14.8 km/h 39 % 0 mm
13:55 23.3 °C 8.6 °C 1016.5 hPa SW 11.9 km/h 14.8 km/h 39 % 0 mm
14:00 23.1 °C 8.8 °C 1016.5 hPa SW 6.8 km/h 9.3 km/h 40 % 0 mm
14:05 23.1 °C 8.8 °C 1016.5 hPa SW 7.1 km/h 11.3 km/h 40 % 0 mm
14:10 23 °C 8.3 °C 1016.5 hPa SW 4.5 km/h 7.4 km/h 39 % 0 mm
14:15 23.1 °C 8.3 °C 1016.8 hPa SW 1 km/h 3.7 km/h 39 % 0 mm
14:20 23.5 °C 9.1 °C 1016.5 hPa SW 0.5 km/h 1.9 km/h 40 % 0 mm
14:25 23.5 °C 8.3 °C 1016.5 hPa SW 0.2 km/h 1.9 km/h 38 % 0 mm
14:30 23.5 °C 8.7 °C 1016.8 hPa SW 9.3 km/h 18.5 km/h 39 % 0 mm
14:35 23.3 °C 8.6 °C 1016.8 hPa SW 5.6 km/h 8 km/h 39 % 0 mm
14:40 23.3 °C 8.9 °C 1016.5 hPa SW 3.2 km/h 5.6 km/h 40 % 0 mm
14:45 23.7 °C 8.9 °C 1016.5 hPa SW 3.4 km/h 3.7 km/h 39 % 0 mm
14:46 23.8 °C 9 °C 1016.5 hPa SW 4.3 km/h 6.4 km/h 39 % 0 mm
14:51 23.7 °C 8.6 °C 1016.5 hPa SW 5.6 km/h 9.3 km/h 38 % 0 mm
14:56 23.7 °C 8.5 °C 1016.5 hPa SW 2.9 km/h 4.8 km/h 38 % 0 mm
15:01 23.8 °C 8.6 °C 1016.5 hPa SW 4.8 km/h 8 km/h 38 % 0 mm
15:06 23.6 °C 8.8 °C 1016.5 hPa North 5.3 km/h 7.4 km/h 39 % 0 mm
15:11 23.4 °C 9.1 °C 1016.5 hPa SW 6.9 km/h 11.3 km/h 40 % 0 mm
15:16 23.4 °C 9 °C 1016.5 hPa SW 6 km/h 6.4 km/h 40 % 0 mm
15:17 23.4 °C 9 °C 1016.5 hPa SW 6 km/h 6 km/h 40 % 0 mm
15:22 23.4 °C 8.7 °C 1016.5 hPa North 4.3 km/h 5.6 km/h 39 % 0 mm
15:27 23.7 °C 8.5 °C 1016.5 hPa North 1 km/h 5.6 km/h 38 % 0 mm
15:32 24 °C 8.4 °C 1016.5 hPa Calm     37 % 0 mm
15:37 24.3 °C 9.1 °C 1016.5 hPa SW 1.9 km/h 3.7 km/h 38 % 0 mm
15:42 24.6 °C 8.6 °C 1016.5 hPa SW 0.3 km/h 1.9 km/h 36 % 0 mm
15:47 24.7 °C 8.6 °C 1016.5 hPa Calm     36 % 0 mm
15:52 24.7 °C 8.6 °C 1016.5 hPa SW 6 km/h 7.4 km/h 36 % 0 mm
15:57 24.2 °C 8.6 °C 1016.5 hPa SW 5 km/h 7.4 km/h 37 % 0 mm
16:02 23.9 °C 8.3 °C 1016.5 hPa North 2.9 km/h 5.6 km/h 37 % 0 mm
16:07 23.8 °C 8.7 °C 1016.5 hPa SW 4.5 km/h 6.4 km/h 38 % 0 mm
16:12 23.7 °C 8.6 °C 1016.5 hPa SW 5.1 km/h 5.6 km/h 38 % 0 mm
16:17 23.7 °C 8.1 °C 1016.5 hPa SW 0.6 km/h 3.7 km/h 37 % 0 mm
16:22 23.7 °C 8.6 °C 1016.5 hPa SW 1.1 km/h 3.7 km/h 38 % 0 mm
16:27 23.7 °C 8.5 °C 1016.5 hPa SW 5.3 km/h 7.4 km/h 38 % 0 mm
16:32 23.5 °C 8.3 °C 1016.5 hPa SW 0.8 km/h 3.7 km/h 38 % 0 mm
16:37 23.5 °C 8.3 °C 1016.5 hPa North 0.2 km/h 1.9 km/h 38 % 0 mm
16:42 23.6 °C 8.4 °C 1016.5 hPa SW 3.1 km/h 5.6 km/h 38 % 0 mm
16:47 23.5 °C 8.3 °C 1016.5 hPa Calm   1.9 km/h 38 % 0 mm
16:52 23.4 °C 8.3 °C 1016.5 hPa SW 1.8 km/h 3.7 km/h 38 % 0 mm
16:57 23.4 °C 8.7 °C 1016.5 hPa Calm   1.9 km/h 39 % 0 mm
17:02 23.3 °C 8.6 °C 1016.5 hPa Calm     39 % 0 mm
17:07 23.3 °C 8.6 °C 1016.5 hPa SW 0.8 km/h 1.9 km/h 39 % 0 mm
17:12 23.3 °C 8.6 °C 1016.8 hPa SW 0.2 km/h 1.9 km/h 39 % 0 mm
17:17 23.2 °C 8.8 °C 1016.5 hPa SW 1.6 km/h 3.7 km/h 40 % 0 mm
17:22 22.9 °C 8.6 °C 1016.8 hPa SW 0.5 km/h 1.9 km/h 40 % 0 mm
17:27 22.8 °C 9.2 °C 1016.8 hPa Calm     42 % 0 mm
17:32 22.6 °C 9.1 °C 1016.8 hPa SW 0.3 km/h 1.9 km/h 42 % 0 mm
17:37 22.4 °C 9.2 °C 1016.8 hPa Calm     43 % 0 mm
17:42 22.2 °C 9.4 °C 1016.8 hPa Calm     44 % 0 mm
17:47 22 °C 9.2 °C 1016.8 hPa Calm     44 % 0 mm
17:52 21.8 °C 9.7 °C 1016.8 hPa Calm     46 % 0 mm
17:57 21.3 °C 9.6 °C 1016.8 hPa Calm     47 % 0 mm
18:02 20.4 °C 9.4 °C 1016.8 hPa Calm     49 % 0 mm
18:07 19.9 °C 9.4 °C 1016.8 hPa Calm     51 % 0 mm
18:12 19.3 °C 9.5 °C 1016.8 hPa Calm     53 % 0 mm
18:17 18.8 °C 9.6 °C 1017.2 hPa Calm     55 % 0 mm
18:22 18.4 °C 9.7 °C 1017.2 hPa Calm     57 % 0 mm
18:27 18.1 °C 9.7 °C 1017.2 hPa Calm     58 % 0 mm
18:32 17.7 °C 9.8 °C 1017.5 hPa Calm     60 % 0 mm
18:37 17.3 °C 9.7 °C 1017.5 hPa Calm     61 % 0 mm
18:42 17 °C 9.7 °C 1017.5 hPa Calm     62 % 0 mm
18:47 16.8 °C 9.7 °C 1017.5 hPa Calm     63 % 0 mm
18:52 16.7 °C 9.8 °C 1017.5 hPa Calm     64 % 0 mm
18:57 16.4 °C 9.4 °C 1017.5 hPa Calm     63 % 0 mm
19:02 16.4 °C 9.3 °C 1017.5 hPa Calm     63 % 0 mm
19:07 16.3 °C 9 °C 1017.5 hPa Calm     62 % 0 mm
19:12 16.3 °C 9 °C 1017.8 hPa Calm     62 % 0 mm
19:17 15.9 °C 9.1 °C 1017.8 hPa Calm     64 % 0 mm
19:22 15.8 °C 9.2 °C 1017.8 hPa Calm     65 % 0 mm
19:27 15.6 °C 8.8 °C 1017.8 hPa Calm     64 % 0 mm
19:32 15.6 °C 8.6 °C 1017.8 hPa Calm     63 % 0 mm
19:37 15.5 °C 8.5 °C 1017.8 hPa Calm     63 % 0 mm
19:42 15.6 °C 8.3 °C 1017.8 hPa Calm     62 % 0 mm
19:47 15.6 °C 8.6 °C 1017.8 hPa Calm     63 % 0 mm
19:52 15.2 °C 8.4 °C 1017.8 hPa Calm     64 % 0 mm
19:57 15 °C 8.4 °C 1017.8 hPa Calm     65 % 0 mm
20:02 14.9 °C 8.4 °C 1018.2 hPa Calm     65 % 0 mm
20:07 14.7 °C 8.4 °C 1017.8 hPa Calm     66 % 0 mm
20:12 14.4 °C 8.3 °C 1018.2 hPa Calm     67 % 0 mm
20:17 14.3 °C 8.5 °C 1018.2 hPa SW 1.9 km/h 3.7 km/h 68 % 0 mm
20:22 14.2 °C 8.4 °C 1018.2 hPa Calm     68 % 0 mm
20:27 14.1 °C 8.3 °C 1018.2 hPa Calm     68 % 0 mm
20:32 14.1 °C 8.2 °C 1018.2 hPa Calm     68 % 0 mm
20:37 13.9 °C 8.1 °C 1018.2 hPa Calm     68 % 0 mm
20:42 13.8 °C 8.2 °C 1018.2 hPa Calm     69 % 0 mm
20:47 13.7 °C 8.1 °C 1018.2 hPa Calm     69 % 0 mm
20:52 13.4 °C 7.9 °C 1018.2 hPa Calm     69 % 0 mm
20:57 13.3 °C 8 °C 1018.2 hPa Calm     70 % 0 mm
21:02 13.2 °C 7.9 °C 1018.5 hPa Calm     70 % 0 mm
21:07 13.1 °C 7.8 °C 1018.5 hPa Calm     70 % 0 mm
21:12 13 °C 7.9 °C 1018.5 hPa Calm     71 % 0 mm
21:17 12.9 °C 7.8 °C 1018.5 hPa Calm     71 % 0 mm
21:22 12.8 °C 7.7 °C 1018.5 hPa Calm     71 % 0 mm
21:27 12.7 °C 7.6 °C 1018.5 hPa Calm     71 % 0 mm
21:32 12.6 °C 7.7 °C 1018.5 hPa Calm     72 % 0 mm
21:37 12.5 °C 7.6 °C 1018.5 hPa Calm     72 % 0 mm
21:42 12.4 °C 7.5 °C 1018.5 hPa Calm     72 % 0 mm
21:47 12.2 °C 7.4 °C 1018.5 hPa Calm     73 % 0 mm
21:52 12.2 °C 7.4 °C 1018.5 hPa Calm     73 % 0 mm
21:57 12.1 °C 7.3 °C 1018.5 hPa Calm     73 % 0 mm
22:02 12 °C 7.3 °C 1018.5 hPa Calm     73 % 0 mm
22:07 11.9 °C 7.4 °C 1018.5 hPa Calm     74 % 0 mm
22:08 11.9 °C 7.4 °C 1018.5 hPa Calm     74 % 0 mm
22:13 11.9 °C 7.4 °C 1018.5 hPa Calm     74 % 0 mm
22:18 11.7 °C 7.2 °C 1018.5 hPa Calm     74 % 0 mm
22:23 11.6 °C 7.3 °C 1018.5 hPa Calm     75 % 0 mm
22:28 11.4 °C 7.2 °C 1018.5 hPa Calm     75 % 0 mm
22:33 11.3 °C 7 °C 1018.5 hPa Calm     75 % 0 mm
22:38 11.2 °C 7.1 °C 1018.5 hPa Calm     76 % 0 mm
22:43 11.2 °C 7.1 °C 1018.5 hPa Calm     76 % 0 mm
22:48 11.2 °C 7.1 °C 1018.5 hPa Calm     76 % 0 mm
22:53 11.1 °C 7.1 °C 1018.5 hPa Calm     76 % 0 mm
22:58 11 °C 6.9 °C 1018.5 hPa Calm     76 % 0 mm
23:03 10.9 °C 7.1 °C 1018.5 hPa Calm     77 % 0 mm
23:08 10.9 °C 7.1 °C 1018.5 hPa SW 0.2 km/h 1.6 km/h 77 % 0 mm
23:13 10.9 °C 7.1 °C 1018.5 hPa Calm     77 % 0 mm
23:18 10.9 °C 6.9 °C 1018.5 hPa Calm     76 % 0 mm
23:23 10.9 °C 6.9 °C 1018.5 hPa Calm     76 % 0 mm
23:28 10.8 °C 6.7 °C 1018.5 hPa Calm     76 % 0 mm
23:33 10.7 °C 6.8 °C 1018.5 hPa Calm     77 % 0 mm
23:38 10.6 °C 6.7 °C 1018.5 hPa Calm     77 % 0 mm
23:43 10.4 °C 6.6 °C 1018.5 hPa Calm     77 % 0 mm
23:48 10.3 °C 6.6 °C 1018.5 hPa Calm     78 % 0 mm
23:53 10.2 °C 6.7 °C 1018.5 hPa Calm     79 % 0 mm
23:58 10 °C 6.5 °C 1018.5 hPa Calm     79 % 0 mm
Ararat Weather
Compliments of Weather Underground - 2.5 mb
Click here to send mail.


ABOUT

Live weather data from Ararat, Victoria, Australia, 3377
Data uploaded from Cumulus every 5 minutes to Weather Underground.
This site then downloads the raw data for formatting and display.
Metric and imperial data can be displayed. Graphs and historical data available.
Includes Sun and Moon times and rain image live from BOM.

Check out Ararat Weather on Facebook, Twitter and Google +

Help support ongoing costs by checking out the ads





Follow @AraratWeather